DAL1452 KLEX-KATL

Flight info

Callsign DAL1452
Flight time N/A
Altitude 32000
Route CLEGG IIU BWG HITMN/N0439F310 NEWBB IHAVE MTHEW CHPPR1
Aircraft MD88/M-SDFGIRWY/S

Departure

Time 2026-04-26 17:02
Airport Blue Grass Airport (KLEX)

Arrival

Time N/A
Airport Hartsfield Jackson Atlanta International Airport (KATL)
Time Latitude Longitude Altitude Speed Heading
2026-04-26 16:24 38.03595 -84.59980 952 ft 0 kts 54°
2026-04-26 16:49 38.03592 -84.59986 952 ft 4 kts 45°
2026-04-26 16:49 38.03577 -84.60011 949 ft 4 kts 45°
2026-04-26 16:49 38.03555 -84.60027 948 ft 4 kts
2026-04-26 16:50 38.03533 -84.60020 949 ft 2 kts 328°
2026-04-26 16:50 38.03528 -84.60017 949 ft 0 kts 328°
2026-04-26 16:54 38.03531 -84.60019 949 ft 1 kts 328°
2026-04-26 16:54 38.03540 -84.60026 950 ft 3 kts 328°
2026-04-26 16:55 38.03576 -84.60054 950 ft 7 kts 329°
2026-04-26 16:55 38.03621 -84.60087 951 ft 8 kts 335°
2026-04-26 16:55 38.03674 -84.60106 951 ft 8 kts 349°
2026-04-26 16:55 38.03732 -84.60115 952 ft 8 kts 356°
2026-04-26 16:56 38.03738 -84.60117 952 ft 0 kts 342°
2026-04-26 16:56 38.03739 -84.60119 952 ft 0 kts 314°
2026-04-26 16:56 38.03740 -84.60127 952 ft 3 kts 282°
2026-04-26 16:57 38.03727 -84.60184 948 ft 11 kts 245°
2026-04-26 16:57 38.03687 -84.60283 949 ft 14 kts 244°
2026-04-26 16:57 38.03554 -84.60488 945 ft 17 kts 221°
2026-04-26 16:58 38.03459 -84.60594 944 ft 19 kts 219°
2026-04-26 16:58 38.03424 -84.60631 943 ft 20 kts 219°
2026-04-26 16:58 38.03123 -84.60972 936 ft 24 kts 221°
2026-04-26 16:59 38.02997 -84.61114 933 ft 25 kts 221°
2026-04-26 16:59 38.02756 -84.61343 932 ft 14 kts 216°
2026-04-26 17:00 38.02761 -84.61489 929 ft 7 kts 315°
2026-04-26 17:00 38.02792 -84.61484 929 ft 0 kts 42°
2026-04-26 17:01 38.02793 -84.61483 930 ft 5 kts 42°
2026-04-26 17:01 38.03025 -84.61225 936 ft 83 kts 41°
2026-04-26 17:01 38.03633 -84.60547 949 ft 146 kts 41°
2026-04-26 17:01 38.04485 -84.59606 1385 ft 164 kts 40°
2026-04-26 17:02 38.05389 -84.58799 2336 ft 161 kts 24°
2026-04-26 17:02 38.06574 -84.58606 2799 ft 187 kts 349°
2026-04-26 17:02 38.07774 -84.59474 3245 ft 217 kts 319°
2026-04-26 17:02 38.08849 -84.60959 3808 ft 239 kts 309°
2026-04-26 17:03 38.09757 -84.62814 4398 ft 260 kts 298°
2026-04-26 17:03 38.10539 -84.64993 4959 ft 282 kts 294°
2026-04-26 17:03 38.11285 -84.67373 5583 ft 299 kts 292°
2026-04-26 17:03 38.12026 -84.69948 6165 ft 315 kts 290°
2026-04-26 17:04 38.12769 -84.72518 7132 ft 316 kts 291°
2026-04-26 17:04 38.13527 -84.75045 8314 ft 304 kts 292°
2026-04-26 17:04 38.14298 -84.77528 9554 ft 294 kts 292°
2026-04-26 17:04 38.15058 -84.79893 10489 ft 291 kts 293°
2026-04-26 17:05 38.15815 -84.82199 11620 ft 277 kts 293°
2026-04-26 17:05 38.16575 -84.84457 12377 ft 279 kts 294°
2026-04-26 17:05 38.17351 -84.86747 12951 ft 288 kts 294°
2026-04-26 17:05 38.18087 -84.89181 13302 ft 304 kts 283°
2026-04-26 17:06 38.18216 -84.91949 13489 ft 325 kts 265°
2026-04-26 17:06 38.18003 -84.94890 13711 ft 344 kts 263°
2026-04-26 17:06 38.17694 -84.97996 13911 ft 363 kts 262°
2026-04-26 17:06 38.17322 -85.01245 14089 ft 380 kts 261°
2026-04-26 17:07 38.16910 -85.04603 14451 ft 389 kts 260°
2026-04-26 17:07 38.16623 -85.06891 14924 ft 389 kts 260°
2026-04-26 17:07 38.16192 -85.10308 15593 ft 391 kts 260°
2026-04-26 17:07 38.15621 -85.14838 16515 ft 393 kts 260°
2026-04-26 17:08 38.15336 -85.17108 17018 ft 393 kts 261°
2026-04-26 17:08 38.14911 -85.20536 17730 ft 395 kts 261°
2026-04-26 17:08 38.14487 -85.23994 18398 ft 396 kts 261°
2026-04-26 17:08 38.14066 -85.27459 18981 ft 398 kts 262°
2026-04-26 17:09 38.13643 -85.30936 19556 ft 400 kts 262°
2026-04-26 17:09 38.13356 -85.33296 19920 ft 401 kts 262°
2026-04-26 17:09 38.12792 -85.37961 20620 ft 405 kts 262°
2026-04-26 17:09 38.12366 -85.41501 21111 ft 408 kts 263°
2026-04-26 17:10 38.11931 -85.45087 21601 ft 412 kts 263°
2026-04-26 17:10 38.11483 -85.48683 22149 ft 413 kts 263°
2026-04-26 17:10 38.11029 -85.52285 22673 ft 415 kts 263°
2026-04-26 17:10 38.10213 -85.55823 23113 ft 423 kts 246°
2026-04-26 17:11 38.08511 -85.58898 23560 ft 433 kts 227°
2026-04-26 17:11 38.06108 -85.61259 23966 ft 441 kts 215°
2026-04-26 17:11 38.03455 -85.63253 24306 ft 446 kts 212°
2026-04-26 17:11 38.00733 -85.65167 24683 ft 448 kts 212°
2026-04-26 17:12 37.95266 -85.69049 25406 ft 453 kts 213°
2026-04-26 17:12 37.92533 -85.71063 25729 ft 455 kts 214°
2026-04-26 17:13 37.87070 -85.75178 26426 ft 459 kts 214°
2026-04-26 17:13 37.84324 -85.77259 26725 ft 462 kts 214°
2026-04-26 17:13 37.78820 -85.81418 27402 ft 467 kts 214°
2026-04-26 17:14 37.76016 -85.83527 27737 ft 470 kts 214°
2026-04-26 17:14 37.70456 -85.87680 29372 ft 453 kts 215°
2026-04-26 17:14 37.67745 -85.89691 29881 ft 452 kts 215°
2026-04-26 17:15 37.62320 -85.93736 30646 ft 451 kts 216°
2026-04-26 17:15 37.59626 -85.95745 31092 ft 449 kts 216°
2026-04-26 17:15 37.56938 -85.97750 31486 ft 447 kts 216°
2026-04-26 17:16 37.54271 -85.99737 31797 ft 443 kts 216°
2026-04-26 17:16 37.51652 -86.01683 31931 ft 428 kts 217°
2026-04-26 17:16 37.49117 -86.03562 31997 ft 421 kts 217°
2026-04-26 17:17 37.44010 -86.07377 32044 ft 434 kts 217°
2026-04-26 17:17 37.38707 -86.11329 32042 ft 450 kts 217°
2026-04-26 17:18 37.33257 -86.15344 32035 ft 456 kts 217°
2026-04-26 17:18 37.27784 -86.19360 32018 ft 454 kts 217°
2026-04-26 17:19 37.19623 -86.25363 32031 ft 452 kts 217°
2026-04-26 17:19 37.14204 -86.29343 32032 ft 451 kts 217°
2026-04-26 17:20 37.09713 -86.32638 32041 ft 449 kts 217°
2026-04-26 17:20 37.03402 -86.37268 32050 ft 450 kts 217°
2026-04-26 17:21 36.98065 -86.41187 32048 ft 450 kts 217°
2026-04-26 17:21 36.95208 -86.42846 32052 ft 460 kts 204°
2026-04-26 17:21 36.92116 -86.43962 32043 ft 464 kts 200°
2026-04-26 17:22 36.85861 -86.45774 32049 ft 465 kts 199°
2026-04-26 17:22 36.79578 -86.47638 32040 ft 463 kts 200°
2026-04-26 17:23 36.73337 -86.49621 32035 ft 463 kts 201°
2026-04-26 17:23 36.67094 -86.51632 32018 ft 463 kts 201°
2026-04-26 17:24 36.60862 -86.53621 32013 ft 462 kts 201°
2026-04-26 17:24 36.54632 -86.55601 32042 ft 462 kts 201°
2026-04-26 17:25 36.48401 -86.57566 32031 ft 462 kts 201°
2026-04-26 17:25 36.42185 -86.59522 32032 ft 460 kts 201°
2026-04-26 17:26 36.35974 -86.61480 32042 ft 460 kts 201°
2026-04-26 17:26 36.29765 -86.63438 32037 ft 461 kts 201°
2026-04-26 17:27 36.23555 -86.65390 32038 ft 461 kts 201°
2026-04-26 17:27 36.17331 -86.67324 32032 ft 462 kts 197°
2026-04-26 17:28 36.14088 -86.67601 32044 ft 475 kts 180°
2026-04-26 17:28 36.10836 -86.66724 32053 ft 487 kts 162°
2026-04-26 17:28 36.04864 -86.62586 32047 ft 496 kts 150°
2026-04-26 17:29 36.00014 -86.58799 32040 ft 495 kts 152°
2026-04-26 17:29 35.93082 -86.53801 32042 ft 493 kts 154°
2026-04-26 17:30 35.87103 -86.49667 32002 ft 493 kts 154°
2026-04-26 17:30 35.81114 -86.45510 32020 ft 494 kts 154°
2026-04-26 17:31 35.75145 -86.41337 32014 ft 494 kts 154°
2026-04-26 17:31 35.69213 -86.37166 31993 ft 494 kts 154°
2026-04-26 17:32 35.63255 -86.32940 32003 ft 496 kts 153°
2026-04-26 17:32 35.57281 -86.28703 32006 ft 496 kts 154°
2026-04-26 17:33 35.51567 -86.24664 32019 ft 495 kts 154°
2026-04-26 17:34 35.42639 -86.18308 32006 ft 496 kts 149°
2026-04-26 17:34 35.37120 -86.13148 32016 ft 501 kts 143°
2026-04-26 17:35 35.31746 -86.07694 32016 ft 501 kts 143°
2026-04-26 17:35 35.26320 -86.02351 32013 ft 500 kts 144°
2026-04-26 17:36 35.20830 -85.97114 32016 ft 500 kts 145°
2026-04-26 17:36 35.15323 -85.91904 32008 ft 501 kts 145°
2026-04-26 17:37 35.09820 -85.86666 32012 ft 502 kts 145°
2026-04-26 17:37 35.04320 -85.81418 32003 ft 502 kts 145°
2026-04-26 17:38 34.96059 -85.73559 31997 ft 502 kts 145°
2026-04-26 17:38 34.90552 -85.68324 31984 ft 502 kts 145°
2026-04-26 17:39 34.85025 -85.63093 32004 ft 504 kts 145°
2026-04-26 17:39 34.79476 -85.57846 31763 ft 509 kts 145°
2026-04-26 17:40 34.76653 -85.55192 31087 ft 517 kts 145°
2026-04-26 17:40 34.75695 -85.54294 30910 ft 515 kts 145°
2026-04-26 17:40 34.71063 -85.49941 30026 ft 500 kts 144°
2026-04-26 17:40 34.68322 -85.47353 29108 ft 498 kts 144°
2026-04-26 17:41 34.65583 -85.44767 28088 ft 499 kts 144°
2026-04-26 17:41 34.62836 -85.42180 27071 ft 501 kts 144°
2026-04-26 17:41 34.60114 -85.39611 26664 ft 489 kts 143°
2026-04-26 17:41 34.57450 -85.37099 26022 ft 482 kts 143°
2026-04-26 17:42 34.54814 -85.34619 25421 ft 477 kts 143°
2026-04-26 17:42 34.52207 -85.32171 24814 ft 471 kts 143°
2026-04-26 17:42 34.49626 -85.29750 24224 ft 466 kts 143°
2026-04-26 17:42 34.47081 -85.27362 23649 ft 458 kts 143°
2026-04-26 17:43 34.44581 -85.25017 22797 ft 453 kts 143°
2026-04-26 17:43 34.42100 -85.22692 21983 ft 448 kts 143°
2026-04-26 17:43 34.39654 -85.20397 21224 ft 441 kts 143°
2026-04-26 17:43 34.37275 -85.18168 20455 ft 436 kts 143°
2026-04-26 17:44 34.34893 -85.15934 19733 ft 430 kts 144°
2026-04-26 17:44 34.32540 -85.13743 19021 ft 424 kts 144°
2026-04-26 17:44 34.30210 -85.11582 18276 ft 420 kts 144°
2026-04-26 17:44 34.27911 -85.09453 17501 ft 413 kts 144°
2026-04-26 17:45 34.25644 -85.07355 16737 ft 407 kts 144°
2026-04-26 17:45 34.23445 -85.05318 16025 ft 400 kts 144°
2026-04-26 17:45 34.21248 -85.03282 15290 ft 394 kts 143°
2026-04-26 17:45 34.19086 -85.01278 14587 ft 389 kts 143°
2026-04-26 17:46 34.16961 -84.99303 13912 ft 383 kts 143°
2026-04-26 17:46 34.14883 -84.97368 13426 ft 372 kts 142°
2026-04-26 17:46 34.13047 -84.95656 13223 ft 370 kts 142°
2026-04-26 17:46 34.11307 -84.94012 13130 ft 373 kts 142°
2026-04-26 17:47 34.09265 -84.92060 13069 ft 376 kts 142°
2026-04-26 17:47 34.08574 -84.91397 13060 ft 377 kts 142°
2026-04-26 17:47 34.05154 -84.88125 13039 ft 378 kts 142°
2026-04-26 17:47 34.03087 -84.86161 13036 ft 379 kts 142°
2026-04-26 17:48 34.01021 -84.84206 13023 ft 379 kts 142°
2026-04-26 17:48 33.98932 -84.82239 13027 ft 380 kts 142°
2026-04-26 17:48 33.98239 -84.81587 13026 ft 0 kts 142°
2026-04-26 17:49 33.98536 -84.81294 13027 ft 0 kts 135°
2026-04-26 17:50 33.98192 -84.82434 13030 ft 0 kts 133°